Regional Weather Roundup
Issued by NWS

Current Version | Previous Version | Text Only | Print | Product List | Glossary On
Versions: 1 2 3 4 5 6 7 8 9 10 11 12 13 14 15 16 17 18 19 20 21 22 23 24 25 26 27 28 29 30 31 32 33 34 35 36 37 38 39 40 41 42 43 44 45 46 47 48 49 50
000
ASHW40 PHFO 010443
RWRHI

WEATHER ROUNDUP FOR HAWAII
NATIONAL WEATHER SERVICE HONOLULU HI
600 PM HST SAT FEB 28 2015

THIS IS AN AUTOMATED REPORT THAT HAS NOT BEEN QUALITY CONTROLLED.

NOTE..."FAIR" INDICATES FEW OR NO CLOUDS BELOW 12,000 FEET WITH NO
SIGNIFICANT WEATHER AND/OR OBSTRUCTIONS TO VISIBILITY.

* - THESE SITES REPORT LIMITED FIELDS

HIZ001>004-010500-
KAUAI-NIIHAU-

CITY           SKY/WX    TMP DP  RH WIND       PRES   REMARKS
LIHUE APT      CLOUDY    72  63  73 N12       29.99R
PORT ALLEN*      N/A     77 N/A N/A NE13        N/A
POIPU*         NOT AVBL
PRINCEVILLE*     N/A     68 N/A N/A MISG        N/A
KOKOLE POINT*  NOT AVBL
MOLOAA DAIRY*  NOT AVBL
WAIMEA HTS*      N/A    N/A N/A N/A W5G12       N/A
PUU OPAE*        N/A     64  59  82 CALM        N/A
PUU LUA*       NOT AVBL
MAKAHA RIDGE*  NOT AVBL
$$

HIZ005>011-010500-
OAHU-

CITY           SKY/WX    TMP DP  RH WIND       PRES   REMARKS
HONOLULU       CLOUDY    76  64  66 N13       29.93R
KALAELOA       CLOUDY    75  63  66 VRB7      29.94R
KANEOHE MCB    CLOUDY    74  65  73 NE14      29.93R
WHEELER FIELD  FAIR      70  63  78 NW10      29.95R
BELLOWS*         N/A    N/A N/A N/A N9G15       N/A
KAHUKU*          N/A    N/A N/A N/A NE5G10      N/A
WHEELER*       NOT AVBL
WAIANAE HARBOR NOT AVBL
DILLINGHAM*      N/A     73  64  73 MISG        N/A
KAHUKU TRN*      N/A     70  63  78 NE7G15      N/A
KAWAILOA*        N/A     66  64  94 NE8G18      N/A
KII*             N/A     73  66  78 NE12G17     N/A
MAKUA RANGE*     N/A     72  64  78 E13G22      N/A
OAHU FOREST NW   N/A     61  10  13 CALM        N/A
SCHOFIELD BRK*   N/A     70  63  78 MISG        N/A
SCHOFIELD S*   NOT AVBL
WAIANAE VLY*     N/A    N/A N/A N/A N8G23       N/A
KUAOKALA*        N/A     66  63  88 CALM        N/A
HONOULIUULI*   NOT AVBL
MOKUOLOE IS*     N/A    N/A N/A N/A MISG        N/A
PALEHUA*         N/A     75  64  69 CALM        N/A
WAIAWA PHB*    NOT AVBL
$$

HIZ012>013-010500-
MOLOKAI-

CITY           SKY/WX    TMP DP  RH WIND       PRES   REMARKS
MOLOKAI AIRPT  LGT RAIN  70  70 100 N9G18     29.95R
KALAUPAPA      NOT AVBL
MAKAPULAPAI*     N/A     73  68  83 NE12G17     N/A
MOLOKAI 1*       N/A     63  63 100 VRB8G21     N/A
PUU ALII*        N/A     58  58 100 E1G7        N/A
$$

HIZ016-010500-
KAHOOLAWE-

CITY           SKY/WX    TMP DP  RH WIND       PRES   REMARKS
KAHOOLAWE*       N/A     68 N/A N/A NE12G18     N/A
HAKIOAWA*        N/A     68  65  91 MISG      30.36R
HONOKANAIA*      N/A     75  62  64 VRB15G25  29.93R
KANELOA*         N/A     73  66  78 MISG      29.14R
KEALIALALO*    NOT AVBL
LUA MAKIKA*    NOT AVBL
$$

HIZ014>015-010500-
LANAI-

CITY           SKY/WX    TMP DP  RH WIND       PRES   REMARKS
LANAI CITY     FAIR      70  65  84 NE21      29.96R
LANAI 1*         N/A     70  70 100 NE18G30     N/A
$$

HIZ017>028-010500-
MAUI-

CITY           SKY/WX    TMP DP  RH WIND       PRES   REMARKS
KAHULUI        CLOUDY    74  66  76 NE10      29.93R
KAPALUA-W MAUI MOCLDY    73  66  78 N12       29.94
HANA AIRPORT   CLOUDY    70  68  94 CALM      29.97R
HANA*            N/A     72 N/A N/A W2          N/A
HALEAKALA SUMM   N/A     43  37  81 CALM        N/A
MAALAEA BAY*   NOT AVBL
HALEAKALA*     NOT AVBL
KAUPO GAP*       N/A     63  59  88 SE2G10      N/A
KULA 1*          N/A     53  52  95 NW3         N/A
$$

HIZ023>026-010500-
BIG ISLAND OF HAWAII COAST AND LOWER SLOPES-

CITY           SKY/WX    TMP DP  RH WIND       PRES   REMARKS
KAILUA KONA    CLOUDY    78  69  73 N7        29.86F
HILO           RAIN      74  70  87 N5        29.93R
HONOKAA*       NOT AVBL
KAWAIHAE MWT*    N/A     79 N/A N/A S3          N/A
KAWAIHAE*        N/A     79 N/A N/A NE2         N/A
SOUTH POINT*     N/A     72 N/A N/A NE9         N/A
UPOLU AIRPORT*   N/A    N/A N/A N/A NE17G23     N/A
KAMUELA*       CLOUDY    64  63  94 NE13      30.03R
HAKALAU*         N/A     53  52  95 E3G9        N/A
KALOKO-HONOKO*   N/A     75  66  73 NW8       29.85F
PALI 2*          N/A     66  59  77 E8G15       N/A
KEALAKOMO*       N/A     77  68  73 E17G24      N/A
KAUPULEHU*       N/A     72  63  73 E9G16       N/A
KAPAPALA*        N/A     68  65  89 CALM        N/A
LOWER KAHUKU*    N/A     61  59  94 N3G13       N/A
PUHE CS*         N/A     77  66  69 S1          N/A
PUHO CS*         N/A     77  61  56 N5G12       N/A
PTA KEAMUKU*     N/A    N/A N/A N/A CALM        N/A
WAIKOLOA*        N/A     73  59  60 E13G18      N/A
$$

HIZ027>028-010500-
BIG ISLAND OF HAWAII INTERIOR AND SUMMMITS-

CITY           SKY/WX    TMP DP  RH WIND       PRES   REMARKS
BRADSHAW FIELD SHOWER    52  52 100 SW6G16    30.24R
MK VISITOR CEN NOT AVBL
MAUNA KEA*       N/A     30  28  93 NW20        N/A  WCI  18
MAUNA LOA*       N/A     36  32  87 MISG        N/A
MAUNA LOA 1*   NOT AVBL
PTA KIPUKA*      N/A     57  57 100 NW5G12      N/A
PTA RANGE 17*    N/A     57  54  88 W6G17       N/A
PTA WEST*        N/A     59  57  94 NW7G18      N/A
NENE CABIN*      N/A     50  43  76 NE5G16      N/A
AHUMOA*          N/A     51  51  99 E7G14       N/A
PTA PORTABLE*  NOT AVBL
PUU MALI*      NOT AVBL
$$

HIC003-010500-
NORTHWEST ISLANDS-

CITY           SKY/WX    TMP DP  RH WIND       PRES   REMARKS
MIDWAY ISLAND  MOSUNNY   63  45  51 NE8       30.25S
MIDWAY NOS*    NOT AVBL
FRENCH FRIGATE NOT AVBL
$$

PHZ110>124-180-010500-
BUOY REPORTS

STATION/POSITION TIME  TEMP    WIND        PRES    WAVE   SWELL
                       AIR SEA DIR/SP/G            HT/PER HT/DIR
                 (UTC) (F)     (DEG/KT/KT) (MB)    (FT/S) (FT/D)
BUOY 51001       NOT AVBL
BUOY 51101       0400   67 71   20/ 17/ 21 1016.6R   6/10   3/ 60
BUOY 51100       0300   73 74  150/  8/ 10 1012.8R
BUOY 51003       0400   76 78   30/ 17/ 19 1012.4R   7/ 8   3
BUOY 51004       0349   78 79   90/ 12/ 14 1011.0R   7/ 9   7/100
BARBERS PT BUOY  NOT AVBL
WAIMEA BAY BUOY  0400      78                N/A     6/ 9   2/340
KAILUA BAY BUOY  0400      77                N/A     5/10   2/ 80
LANAI BUOY       0400      76                N/A     3/13   2/190
BARBERS PT 2     0400      78                N/A     3/10   2/190
PAUWELA MAUI     0400      75                N/A     7/10   3/ 60
HILO             0400      78                N/A     6/ 9   2/ 80
KANEOHE BAY BUOY 0400      77                N/A     5/10   2/ 20
HANALEI KAUAI    NOT AVBL
KAHULUI HARBOR   0400   73 76   10/  7/  9 1013.6R
HONOLULU HARBOR  0400   74 76   40/  4/ 18 1013.4R
KILO NALU        NOT AVBL
HILO HARBOR      0400   74 78   10/ 11/ 13 1013.2R
MOKUOLOE         0400      77              1014.4R
NAWILIWILI       0400   70 78  330/  8/ 11 1014.8R
WHOTS BUOY       NOT AVBL
BUOY 51028       NOT AVBL
$$

......................KEY........................................
  SKY/WX - SKY CONDITIONS/PRESENT WEATHER
  TMP    - TEMPERATURE IN FAHRENHEIT
  DWPT   - DEWPOINT IN FAHRENHEIT
  RH     - RELATIVE HUMIDITY IN PERCENT
  WIND   - DIRECTION AND SPEED /MPH FOR ISLANDS...KTS FOR BUOYS/
  PRES   - MEAN SEA LEVEL PRESSURE IN INCHES OF HG
  VSB    - VISIBILITY IN MILES
  HX     - HEAT INDEX
  WCI    - WIND CHILL INDEX
  VRB    - VARIABLE WIND DIRECTION
  N/A    - NOT AVAILABLE


USA.gov is the U.S. government's official web portal to all federal, state and local government web resources and services.